GFSFLT2_925_rhum_000.txt.gz
RH
80 81 83 79 78 82 83 76 76 78 76 72 60 61 65 62 60 72 76 87 92 92 85 85 86 83 91 92 91 89 71 59
77 77 78 84 82 73 72 78 80 79 81 86 82 77 78 87 80 74 77 80 84 85 86 88 89 80 78 89 93 93 81 65
82 80 86 83 72 66 72 72 72 74 82 84 85 92 92 100 98 98 94 82 77 81 89 89 81 74 76 84 88 89 82 70
62 84 82 77 66 68 85 87 86 86 86 92 90 66 67 74 73 78 86 89 88 90 90 93 82 77 81 55 67 62 63 76
53 67 76 76 75 72 76 98 95 87 90 88 80 70 73 71 70 59 78 75 78 83 99 95 95 90 79 66 70 81 83 83
44 62 73 75 66 67 68 67 69 72 86 93 97 99 100 86 84 97 94 86 66 70 76 74 88 95 97 85 81 84 82 77
39 47 57 62 63 61 61 59 58 61 63 74 74 84 97 97 61 52 65 64 57 64 71 97 95 87 84 91 99 98 88 79
34 37 46 48 55 56 52 48 44 44 50 61 72 72 92 96 92 89 95 98 98 87 87 84 93 92 96 99 97 94 100 97
28 30 36 37 42 39 34 34 34 39 50 65 68 67 81 90 83 81 85 98 98 99 100 98 96 99 93 89 89 96 99 100
25 22 30 32 33 29 27 30 32 38 49 53 58 59 61 64 68 75 82 87 85 86 92 92 98 100 100 92 91 85 95 98
25 27 27 28 29 31 36 39 32 35 40 41 47 44 46 42 48 56 55 51 61 65 70 81 80 93 96 93 99 98 93 94
25 26 30 30 29 31 33 34 35 32 32 35 38 39 39 34 37 47 42 37 37 39 40 43 54 76 72 85 99 94 95 96
24 26 29 28 28 27 26 27 30 34 31 34 38 34 34 35 31 33 35 38 42 40 34 33 35 49 44 62 73 88 94 94
23 23 27 26 24 24 25 26 26 26 31 38 38 38 36 33 32 31 35 31 33 37 38 34 29 36 43 41 64 66 84 91
26 24 24 25 25 25 26 28 29 28 28 29 35 42 42 43 40 38 36 38 35 36 36 37 32 29 38 45 43 62 74 71
29 24 23 24 28 24 27 23 21 21 27 28 33 40 44 44 45 46 49 44 40 36 32 36 36 34 28 29 50 41 42 44
33 27 26 24 29 32 30 30 26 28 32 37 37 39 43 44 45 50 53 52 46 48 48 40 38 38 35 31 29 34 36 48
36 31 27 28 32 35 35 32 31 31 32 34 32 33 33 38 42 46 49 50 50 50 49 50 48 44 40 37 32 32 29 29
33 32 29 29 35 37 40 41 40 37 36 32 36 32 34 34 35 37 36 38 41 42 43 44 44 41 39 39 36 33 35 32
30 28 30 29 36 41 44 42 35 34 37 34 34 35 36 38 41 38 37 38 39 38 38 36 35 40 41 43 40 34 32 35

GFSFLT2_925_rhum_003.txt.gz
RH
63 66 75 81 77 69 71 75 72 74 79 80 76 66 56 78 80 78 90 97 99 95 89 86 86 82 81 83 80 77 75 71
57 59 60 67 67 69 60 63 71 76 78 80 82 79 78 61 81 84 74 84 86 85 95 88 86 89 74 79 82 79 82 65
67 63 68 65 55 52 69 70 69 72 80 76 80 83 98 86 62 73 80 80 79 92 98 99 87 84 77 72 76 71 68 77
47 71 74 69 54 53 67 75 71 71 73 83 74 84 86 89 95 83 75 68 64 62 71 71 99 88 89 74 64 56 69 67
46 62 74 73 63 60 72 82 78 74 78 74 90 86 89 88 99 94 78 65 81 82 76 73 72 74 92 90 64 68 65 66
43 63 69 66 55 55 61 62 63 61 74 76 78 76 91 91 96 92 93 90 88 75 83 79 78 77 66 90 90 91 93 97
38 50 59 63 57 57 56 52 51 53 53 63 60 60 74 76 80 80 84 87 87 94 67 59 72 76 88 78 81 96 95 98
36 40 48 49 53 55 50 45 44 42 49 59 67 65 72 73 73 78 78 95 99 97 99 99 95 84 86 83 84 89 95 90
30 32 38 40 42 37 31 32 35 41 52 60 60 58 65 59 56 57 64 83 85 84 92 96 99 97 98 84 82 84 89 94
25 18 27 29 30 29 26 30 33 40 46 50 53 53 53 52 50 52 57 56 62 71 79 83 89 99 94 97 98 86 78 81
23 23 25 28 29 25 31 36 29 33 38 40 45 42 42 37 40 44 45 39 40 40 39 49 57 63 81 77 81 93 84 81
23 24 24 26 26 29 29 30 32 33 32 32 39 36 35 33 33 41 40 35 36 42 40 36 37 40 52 46 51 86 94 92
24 25 25 26 24 24 25 28 29 30 29 32 35 30 34 35 30 32 35 32 38 42 40 38 34 34 40 39 32 37 57 84
23 23 24 27 23 24 23 24 24 26 28 33 39 36 35 34 32 33 32 34 37 37 40 39 36 32 33 36 40 36 38 64
26 22 23 25 24 21 24 27 28 26 26 30 36 41 39 37 37 36 38 40 37 37 38 38 36 36 35 32 37 42 45 32
29 26 24 24 25 24 22 22 22 21 21 22 24 29 37 39 38 36 36 39 40 40 37 38 41 40 38 36 36 33 40 45
32 30 27 24 23 28 26 27 28 25 26 28 31 34 36 39 38 38 40 39 38 40 42 45 44 45 43 40 40 38 37 40
33 33 31 27 26 26 32 32 30 29 29 31 34 31 32 32 34 37 41 41 40 41 43 45 45 46 47 45 44 43 39 39
31 34 33 29 27 29 32 35 36 36 36 35 33 37 34 35 35 36 37 36 36 36 38 40 41 41 43 44 40 38 37 36
26 28 30 28 28 30 33 36 40 40 36 37 36 33 34 35 37 37 37 37 36 37 37 38 37 38 39 39 39 38 38 37

GFSFLT2_925_rhum_006.txt.gz
RH
59 73 69 76 73 62 62 67 66 66 69 66 63 63 72 62 56 63 71 78 90 94 93 88 85 77 69 71 81 83 76 71
53 53 67 73 72 58 60 60 64 68 72 75 74 75 80 87 84 78 80 85 82 86 94 98 98 92 84 61 66 68 65 62
59 64 66 65 59 52 70 73 72 75 74 71 74 88 86 97 94 90 78 74 71 78 80 86 95 98 92 78 63 57 62 69
42 63 72 72 58 50 70 71 76 80 79 81 76 83 83 82 89 89 80 76 66 65 66 67 66 72 78 99 91 66 60 66
44 59 72 72 65 61 66 73 70 72 77 75 77 80 86 85 88 95 98 87 65 57 70 68 68 68 58 62 83 83 72 62
40 61 68 63 58 56 60 61 64 64 74 72 66 70 70 85 88 87 80 88 97 97 70 77 74 70 66 79 70 68 64 78
36 50 62 66 57 58 56 52 52 54 56 61 61 61 73 74 76 77 80 85 86 81 78 66 66 70 60 68 69 80 83 67
36 41 50 52 54 58 56 50 47 45 51 61 67 67 72 74 71 72 72 83 88 87 98 94 89 95 96 87 83 78 74 79
32 36 43 48 52 52 45 40 38 43 54 62 64 62 62 57 57 56 62 72 74 79 84 80 84 88 92 97 100 95 92 90
28 25 31 37 38 35 32 32 35 41 50 56 56 55 56 53 50 53 48 49 51 51 45 49 63 69 78 84 81 80 89 88
24 23 21 29 30 31 28 31 32 36 44 47 50 46 43 39 41 44 41 38 38 41 42 39 38 38 40 55 51 47 48 66
23 24 25 27 27 27 31 34 33 32 36 37 42 38 38 35 34 38 41 37 38 42 44 41 41 37 36 36 42 42 51 61
25 24 26 26 28 28 29 30 30 32 31 31 35 36 37 37 35 32 34 35 37 37 39 42 41 41 40 38 36 37 39 36
26 25 25 26 28 27 25 27 28 30 30 31 34 36 34 35 36 34 35 36 38 39 43 41 43 39 46 49 58 42 35 38
28 27 25 25 27 26 25 25 26 28 28 29 35 36 39 39 38 38 37 38 41 42 40 40 43 45 42 48 61 61 51 40
30 30 27 25 25 27 27 26 29 28 26 27 27 33 39 39 40 39 39 38 39 41 44 46 47 51 49 48 46 46 59 58
28 31 32 29 27 27 27 27 28 27 29 28 28 31 33 35 39 38 39 42 43 44 43 44 47 52 54 54 51 51 50 58
28 32 34 33 31 29 28 29 30 34 32 34 33 34 34 33 35 38 40 41 40 39 39 39 41 44 48 52 53 54 51 51
28 32 34 35 34 34 30 32 34 35 38 39 36 38 36 35 36 39 39 38 36 34 34 36 40 43 44 46 45 45 46 45
27 26 28 30 32 33 34 32 35 38 41 40 37 38 36 38 38 38 37 37 39 38 38 40 43 43 44 45 49 49 46 44

GFSFLT2_925_rhum_009.txt.gz
RH
69 70 73 72 67 52 53 59 61 59 66 74 72 74 75 72 81 83 84 81 75 84 90 91 85 83 83 78 86 86 86 73
74 79 72 69 67 56 66 59 64 66 68 77 72 74 84 90 87 85 87 89 86 82 84 90 91 89 89 84 84 82 80 76
53 68 77 70 68 58 70 72 74 77 76 69 76 89 84 86 88 87 79 77 84 81 82 84 86 85 84 81 80 78 79 77
42 41 58 60 71 60 70 72 75 76 78 76 81 85 78 80 84 88 86 80 78 66 70 71 81 79 75 78 78 72 63 70
38 53 63 70 65 67 69 69 74 71 78 81 83 82 77 85 83 89 93 92 79 72 68 68 70 70 67 62 64 70 64 67
38 45 60 63 60 68 65 68 66 73 74 74 60 66 69 85 85 89 81 70 66 74 72 68 56 54 68 77 76 70 60 65
37 41 61 59 58 58 59 61 60 61 60 67 67 70 70 74 77 76 80 88 87 93 95 94 90 90 87 84 75 76 62 66
36 39 49 58 58 55 56 52 52 51 53 54 63 68 74 78 78 75 72 72 73 74 77 87 88 91 98 96 92 97 94 94
31 37 46 50 56 58 53 47 40 42 46 52 63 67 67 63 64 60 65 60 67 59 51 44 56 68 71 78 83 85 87 94
30 30 37 42 49 44 39 40 36 39 45 47 45 58 56 54 53 54 52 46 46 41 39 38 38 37 36 38 63 46 42 40
26 28 25 32 35 37 32 34 33 38 45 48 46 38 44 44 45 46 37 39 38 39 40 41 40 41 39 39 35 34 34 35
23 25 24 24 29 30 31 32 32 32 44 46 42 38 37 37 40 39 37 37 39 40 38 42 41 40 41 38 41 38 36 36
24 24 25 26 27 28 28 31 32 32 33 34 42 38 36 35 33 40 38 37 39 42 41 41 40 42 40 42 39 36 41 36
24 25 25 25 26 27 27 27 28 28 30 32 38 36 38 36 35 35 34 35 35 37 42 45 44 40 50 50 69 50 42 44
25 26 26 26 25 26 27 27 27 30 30 33 34 33 33 35 36 38 37 38 38 41 42 40 45 50 45 53 70 68 61 50
26 27 29 29 27 27 26 27 29 27 24 25 28 34 33 37 38 40 41 41 41 45 52 48 47 53 50 48 51 54 69 67
26 29 30 30 31 31 29 27 26 28 28 26 30 30 35 42 43 42 41 44 45 45 42 41 40 42 46 49 51 51 55 63
24 25 26 26 30 32 33 33 30 28 30 32 32 37 39 39 40 39 40 41 38 36 32 28 27 27 30 39 48 55 54 56
29 31 32 31 31 32 34 34 34 33 29 33 37 37 36 36 36 38 41 46 46 49 45 43 30 33 37 42 45 50 49 49
33 35 35 34 35 37 38 37 38 37 34 39 43 41 38 40 40 42 46 57 61 66 65 36 35 38 42 44 46 50 52 54